This is the latest recevied weather packets stored in our database for station/object G1OCN-WX. If no packets are shown the sender has not sent any weather packets the latest 10 day(s).
| Time | Temp. | Humidity | Pressure | Rain* | Wind** | Luminosity | Snow |
|---|---|---|---|---|---|---|---|
| 1787536146 | 16.11° C | 78% | 1021 hPa | 0 mm | - | - | - |
| 1787535246 | 16.11° C | 77% | 1021.2 hPa | 0 mm | - | - | - |
| 1787534346 | 16.11° C | 77% | 1021.2 hPa | 0 mm | - | - | - |
| 1787533446 | 16.11° C | 77% | 1021.1 hPa | 0 mm | - | - | - |
| 1787532546 | 16.11° C | 77% | 1021.3 hPa | 0 mm | - | - | - |
| 1787531646 | 16.11° C | 76% | 1021.4 hPa | 0 mm | - | - | - |
| 1787530746 | 16.11° C | 76% | 1021.4 hPa | 0 mm | - | - | - |
| 1787529846 | 16.67° C | 74% | 1021.6 hPa | 0 mm | - | - | - |
| 1787528946 | 16.67° C | 73% | 1021.6 hPa | 0 mm | - | - | - |
| 1787528045 | 16.67° C | 73% | 1021.6 hPa | 0 mm | - | - | - |
| 1787527145 | 17.22° C | 72% | 1021.6 hPa | 0 mm | - | - | - |
| 1787526245 | 17.78° C | 70% | 1021.8 hPa | 0 mm | - | - | - |
| 1787525345 | 18.33° C | 65% | 1021.8 hPa | 0 mm | - | - | - |
| 1787524445 | 18.33° C | 65% | 1022 hPa | 0 mm | - | - | - |
| 1787523545 | 18.33° C | 65% | 1022.1 hPa | 0 mm | - | - | - |
| 1787522645 | 18.33° C | 65% | 1022.2 hPa | 0 mm | - | - | - |
| 1787521745 | 18.33° C | 64% | 1022.4 hPa | 0 mm | - | - | - |
| 1787520845 | 18.33° C | 64% | 1022.5 hPa | 0 mm | - | - | - |
| 1787519945 | 18.33° C | 64% | 1022.6 hPa | 0 mm | - | - | - |
| 1787519045 | 18.33° C | 63% | 1022.7 hPa | 0 mm | - | - | - |
| 1787518145 | 18.33° C | 65% | 1022.7 hPa | 0 mm | - | - | - |
| 1787517245 | 18.33° C | 62% | 1022.8 hPa | 0 mm | - | - | - |
| 1787516345 | 18.33° C | 64% | 1023 hPa | 0 mm | - | - | - |
| 1787515445 | 17.78° C | 64% | 1023 hPa | 0 mm | - | - | - |
| 1787514545 | 17.78° C | 65% | 1023.1 hPa | 0 mm | - | - | - |
* Rain latest hour (hover to see other rain measurements)
** Current wind speed in m/s (hover to see current wind gust speed)